Location: Spangle
(47.4302°N, 117.3779°W)
Time: 12:27:02
(UTC+00:00)

ISS - Pass Details

Date: 20 April 2026
Orbit: 414 x 424 km, 51.6° (Epoch: 11 May)

Event Time Altitude Azimuth Distance (km) Brightness Sun altitude
Exits shadow 11:12:34 13° 168° (SSE) 1,299 -1.5 -15.6°
Maximum altitude 11:14:04 17° 137° (SE) 1,134 -1.5 -15.4°
Drops below altitude 10° 11:16:21 10° 94° (E) 1,503 -0.2 -15.1°
Sets 11:18:57 0° 74° (ENE) 2,374 1.5 -14.7°
